Regional Weather Roundup
Issued by NWS

Home | Current Version | Previous Version | Graphics & Text | Print | Product List | Glossary On
Versions: 1 2 3 4 5 6 7 8 9 10 11 12 13 14 15 16 17 18 19 20 21 22 23 24 25 26 27 28 29 30 31 32 33 34 35 36 37 38 39 40 41 42 43 44 45 46 47 48 49 50
000
ASUS43 KDTX 290201
RWRMI
MICHIGAN HOURLY REGIONAL WEATHER ROUNDUP
NATIONAL WEATHER SERVICE DETROIT/PONTIAC MI
1000 PM EDT TUE JUL 28 2015

NOTE: "FAIR" INDICATES FEW OR NO CLOUDS BELOW 12,000 FEET WITH NO
SIGNIFICANT WEATHER AND/OR OBSTRUCTION TO VISIBILITY.

MIZ047>049-052>055-059>063-066>070-074>076-081>083-290300-
SOUTHEAST LOWER MICHIGAN

CITY           SKY/WX    TMP DP  RH WIND       PRES   REMARKS
ADRIAN         CLEAR     74  64  71 CALM      29.99R
ALMA           PTCLDY    71  67  89 CALM      29.98R
ANN ARBOR      CLEAR     70  64  81 SE5       29.98R
BAD AXE        MOCLDY    74  64  70 CALM      29.99R
CARO           CLEAR     75  68  78 E5        29.97S
DETROIT CITY   PTCLDY    80  62  54 S3        29.98R
DETROIT        MOCLDY    78  64  61 CALM      29.99R
FLINT          CLEAR     79  62  56 SE6       29.98R
GROSSE ILE     PTCLDY    77  68  73 CALM      29.97R
HILLSDALE      CLEAR     73  68  83 CALM      30.01R
HOWELL         PTCLDY    76  63  64 CALM      30.00R

CITY           SKY/WX    TMP DP  RH WIND       PRES   REMARKS
JACKSON        PTCLDY    75  63  66 CALM      30.00R
LAMBERTVILLE   CLEAR     73  67  80 CALM      29.99R
LANSING        PTCLDY    76  63  64 CALM      29.99R
LAPEER         FAIR      69  65  88 NE3       29.99R
MASON          PTCLDY    70  63  79 CALM      29.99R HAZE
MONROE         PTCLDY    70  66  88 CALM      29.98R
MT. CLEMENS    PTCLDY    76  67  73 SE5       29.96S
PONTIAC        MOCLDY    81  62  52 SE6       29.99R
PORT HOPE        N/A     75  67  76 SE3       29.97S
PORT HURON     MOCLDY    72  68  88 CALM      29.99R
TRI CITIES     PTCLDY    81  66  60 E5        29.98R
MIDLAND        FAIR      72  65  79 CALM      29.97R
TROY           PTCLDY    82  60  47 CALM      30.00S
SAGINAW HB     CLEAR     77  68  73 SE5       29.97R
$$
MIZ043>046-050>051-056>058-064>065-071>073-077>080-290300-
SOUTHWEST LOWER MICHIGAN

CITY           SKY/WX    TMP DP  RH WIND       PRES   REMARKS
BATTLE CREEK   PTCLDY    81  65  58 CALM      29.99R
BENTON HARBOR  PTCLDY    77  71  82 CALM      29.96R
BIG RAPIDS     PTCLDY    73  63  68 CALM      29.98R
COLDWATER      PTCLDY    70  66  88 CALM      29.99R
FREMONT        FAIR      78  62  57 SE5       29.95S
HOLLAND        PTCLDY    78  69  73 CALM      29.97R
GRAND RAPIDS   PTCLDY    77  67  71 SE3       29.97R
IONIA          FAIR      73  66  76 SE3       29.98R
KALAMAZOO      PTCLDY    79  67  66 CALM      29.97R
MARSHALL       PTCLDY    74  66  76 CALM      29.99R
MOUNT PLEASANT MOCLDY    72  65  80 CALM      29.97R
MUSKEGON       MOCLDY    80  64  58 SE3       29.95R
SOUTH HAVEN    PTCLDY    76  70  80 CALM      29.96R
$$
MIZ016>042-290300-
NORTHERN LOWER MICHIGAN

CITY           SKY/WX    TMP DP  RH WIND       PRES   REMARKS
ALPENA         MOCLDY    75  62  64 S5        29.97R
BEAVER ISLAND  CLOUDY    71  63  75 W6        29.95R
BELLAIRE       CLOUDY    75  65  71 CALM      29.95R
CADILLAC       PTCLDY    77  62  58 S3        30.00R
CHARLEVOIX     CLOUDY    75  65  71 CALM      29.97S
FRANKFORT      PTCLDY    71  62  72 CALM      29.94S
GAYLORD        MOCLDY    79  64  60 CALM      29.99R
GRAYLING       MOCLDY    78  63  60 S3        29.99S
HARBOR SPRINGS CLOUDY    76  65  67 CALM      29.94S
HOUGHTON LAKE  MOCLDY    74  65  73 S3        29.99S
MANISTEE       PTCLDY    72  61  68 E3        29.96R
OSCODA         MOCLDY    73  62  66 CALM      29.97R
PELLSTON       MOCLDY    75  66  73 CALM      29.94S
ROGERS CITY    MOCLDY    79  67  66 S10       29.96R
TRAVERSE CITY  MOCLDY    76  65  68 CALM      29.93R
$$
MIZ007>008-015-290300-
EASTERN UPPER MICHIGAN

CITY           SKY/WX    TMP DP  RH WIND       PRES   REMARKS
KINROSS        CLOUDY    79  59  50 E6        29.94S
MACKINAC ISLAN MOCLDY    73  64  71 E6        29.92F
MUNISING         N/A     78  60  53 S7        29.88S
$$
MIZ004>006-011>014-085-290300-
CENTRAL UPPER MICHIGAN

CITY           SKY/WX    TMP DP  RH WIND       PRES   REMARKS
ESCANABA       CLEAR     72  64  78 SE3       29.90S
MENOMINEE      CLEAR     75  63  64 S6        29.90S
SAWYER-GWINN   CLEAR     73  59  60 S13       29.91S
$$
MIZ001>003-009>011-084-290300-
WESTERN UPPER MICHIGAN

CITY           SKY/WX    TMP DP  RH WIND       PRES   REMARKS
IRON MOUNTAIN  CLEAR     73  62  68 SE6       29.90R
HOUGHTON       CLEAR     75  65  70 SE3       29.84R
COPPER HARBOR    N/A     73  61  65 SW9       29.80F
IRONWOOD       MOCLDY    79  70  73 S9G17     29.80S
$$

ABBREVIATIONS USED IN REMARKS
   TC - TEMPERATURE IN CELSIUS
  WCI - WIND CHILL INDEX
   HX - HEAT INDEX
  VSB - VISIBILITY




USA.gov is the U.S. government's official web portal to all federal, state and local government web resources and services.